Ionia, MI

3:38 AM EST on December 06, 2019 (GMT -0500)
Ionia

Weather History for KY70 - November, 2019

Change the Weather History Date:

Saturday, November 16, 2019

  Actual Average (WUND) Record (WUND)
Temperature  
Mean Temperature 26 °F -  
Max Temperature 32 °F - - (-1)
Min Temperature 21 °F - - (-1)
Degree Days  
Heating Degree Days 38    
Moisture  
Dew Point 18 °F    
Average Humidity 68    
Maximum Humidity 84    
Minimum Humidity 49    
Precipitation  
Precipitation 0.00 in - - ()
Sea Level Pressure  
Sea Level Pressure 30.41 in    
Wind  
Wind Speed 6 mph ()    
Max Wind Speed 10 mph    
Max Gust Speed -    
Visibility 10.0 miles    
Events      
Averages and records for this station are not official NWS values.
T = Trace of Precipitation, MM = Missing Value Source: Averaged Metar Reports

Daily Weather History Graph

Daily Weather History Graph

Search for Another Location

Airport or City:

Astronomy

Nov. 16, 2019 Rise Set
Actual Time 7:33 AM EST 5:16 PM EST
Civil Twilight 7:02 AM EST 5:46 PM EST
Nautical Twilight 6:28 AM EST 6:21 PM EST
Astronomical Twilight 5:54 AM EST 6:54 PM EST
Moon 8:45 PM EST (11/16) 11:29 AM EST (11/16)
Length of Visible Light 10h 43m
Length of Day
9h 42m
Waning Gibbous, 82% of the Moon is Illuminated
Nov 16
Waning Gibbous
Nov 19
Last Quarter
Nov 26
New
Dec 4
First Quarter
Dec 12
Full

Hourly Weather History & Observations

Time (EST) Temp. Windchill Dew Point Humidity Pressure Visibility Wind Dir Wind Speed Gust Speed Precip Events Conditions
12:15 AM 30.0 °F 23.2 °F 21.0 °F 69% 30.44 in 10.0 mi NE 6.9 mph - N/A   Clear
12:35 AM 29.3 °F 21.5 °F 21.0 °F 71% 30.44 in 10.0 mi NE 8.1 mph - N/A   Clear
12:55 AM 28.9 °F 21.9 °F 21.0 °F 72% 30.44 in 10.0 mi NE 6.9 mph - N/A   Clear
1:15 AM 28.4 °F 20.4 °F 21.2 °F 74% 30.45 in 10.0 mi NE 8.1 mph - N/A   Clear
1:35 AM 28.4 °F 21.2 °F 21.2 °F 74% 30.44 in 10.0 mi ENE 6.9 mph - N/A   Clear
1:55 AM 28.0 °F 21.7 °F 21.2 °F 76% 30.45 in 10.0 mi ENE 5.8 mph - N/A   Clear
1:56 AM 28.0 °F 20.8 °F 21.2 °F 76% 30.45 in 10.0 mi ENE 6.9 mph - N/A   Clear
2:15 AM 27.3 °F 20.9 °F 21.2 °F 78% 30.45 in 10.0 mi ENE 5.8 mph - N/A   Clear
2:16 AM 27.3 °F 20.9 °F 21.2 °F 78% 30.45 in 10.0 mi ENE 5.8 mph - N/A   Clear
2:35 AM 27.0 °F 18.7 °F 21.6 °F 80% 30.45 in 10.0 mi ENE 8.1 mph - N/A   Clear
2:36 AM 27.0 °F 18.7 °F 21.6 °F 80% 30.45 in 10.0 mi ENE 8.1 mph - N/A   Clear
2:55 AM 26.6 °F 20.0 °F 21.4 °F 81% 30.45 in 10.0 mi ENE 5.8 mph - N/A   Clear
2:56 AM 26.6 °F 19.1 °F 21.4 °F 81% 30.45 in 10.0 mi ENE 6.9 mph - N/A   Clear
3:15 AM 26.4 °F 18.9 °F 21.2 °F 81% 30.45 in 10.0 mi ENE 6.9 mph - N/A   Clear
3:16 AM 26.4 °F 18.9 °F 21.2 °F 81% 30.45 in 10.0 mi ENE 6.9 mph - N/A   Clear
3:35 AM 25.7 °F 19.0 °F 20.8 °F 82% 30.46 in 10.0 mi NE 5.8 mph - N/A   Clear
3:36 AM 25.7 °F 19.0 °F 20.8 °F 82% 30.46 in 10.0 mi NE 5.8 mph - N/A   Clear
3:55 AM 25.3 °F 19.7 °F 21.2 °F 84% 30.45 in 10.0 mi NE 4.6 mph - N/A   Clear
4:15 AM 24.8 °F 16.9 °F 20.5 °F 84% 30.44 in 10.0 mi NNE 6.9 mph - N/A   Clear
4:35 AM 24.6 °F 18.8 °F 20.1 °F 83% 30.45 in 10.0 mi NE 4.6 mph - N/A   Clear
4:55 AM 24.3 °F 17.3 °F 19.4 °F 82% 30.46 in 10.0 mi NE 5.8 mph - N/A   Clear
4:56 AM 24.1 °F 17.0 °F 19.4 °F 82% 30.46 in 10.0 mi NE 5.8 mph - N/A   Clear
5:15 AM 23.9 °F 15.8 °F 18.5 °F 80% 30.46 in 10.0 mi NE 6.9 mph - N/A   Clear
5:35 AM 23.5 °F 16.4 °F 17.8 °F 79% 30.47 in 10.0 mi NE 5.8 mph - N/A   Clear
5:55 AM 23.0 °F 17.0 °F 17.6 °F 80% 30.47 in 10.0 mi NE 4.6 mph - N/A   Clear
6:15 AM 22.5 °F 17.8 °F 17.8 °F 82% 30.47 in 10.0 mi NE 3.5 mph - N/A   Clear
6:35 AM 21.9 °F 17.2 °F 17.6 °F 83% 30.47 in 10.0 mi NE 3.5 mph - N/A   Clear
6:36 AM 21.9 °F 17.2 °F 17.6 °F 83% 30.47 in 10.0 mi NE 3.5 mph - N/A   Clear
6:55 AM 22.1 °F - 17.4 °F 82% 30.47 in 10.0 mi Calm Calm - N/A   Clear
7:15 AM 21.7 °F 17.0 °F 17.2 °F 83% 30.48 in 10.0 mi ENE 3.5 mph - N/A   Clear
7:35 AM 21.2 °F 14.9 °F 17.1 °F 84% 30.48 in 10.0 mi ENE 4.6 mph - N/A   Clear
7:55 AM 21.7 °F 15.5 °F 17.1 °F 82% 30.48 in 10.0 mi NE 4.6 mph - N/A   Clear
7:56 AM 21.7 °F 15.5 °F 17.1 °F 82% 30.48 in 10.0 mi NE 4.6 mph - N/A   Clear
8:15 AM 22.1 °F 15.9 °F 17.2 °F 82% 30.49 in 10.0 mi NE 4.6 mph - N/A   Clear
8:16 AM 22.1 °F 17.4 °F 17.4 °F 82% 30.49 in 10.0 mi NE 3.5 mph - N/A   Clear
8:35 AM 23.0 °F 17.0 °F 17.4 °F 79% 30.49 in 10.0 mi NE 4.6 mph - N/A   Clear
8:36 AM 23.0 °F 17.0 °F 17.6 °F 80% 30.49 in 10.0 mi NE 4.6 mph - N/A   Clear
8:55 AM 24.3 °F 18.4 °F 17.6 °F 76% 30.49 in 10.0 mi ENE 4.6 mph - N/A   Clear
8:56 AM 24.3 °F 17.3 °F 17.8 °F 76% 30.49 in 10.0 mi ENE 5.8 mph - N/A   Clear
9:15 AM 25.2 °F 16.5 °F 18.1 °F 75% 30.49 in 10.0 mi East 8.1 mph - N/A   Clear
9:35 AM 25.7 °F 16.4 °F 18.1 °F 73% 30.49 in 10.0 mi ENE 9.2 mph - N/A   Clear
9:55 AM 27.3 °F 19.9 °F 18.7 °F 70% 30.49 in 10.0 mi ENE 6.9 mph - N/A   Clear
10:15 AM 28.9 °F 20.4 °F 18.7 °F 66% 30.49 in 10.0 mi East 9.2 mph - N/A   Clear
10:16 AM 29.1 °F 21.3 °F 18.7 °F 65% 30.49 in 10.0 mi East 8.1 mph - N/A   Clear
10:35 AM 28.9 °F 20.4 °F 18.3 °F 65% 30.49 in 10.0 mi East 9.2 mph - N/A   Clear
10:36 AM 28.9 °F 19.8 °F 18.5 °F 65% 30.49 in 10.0 mi East 10.4 mph - N/A   Clear
10:55 AM 29.3 °F 20.8 °F 18.5 °F 64% 30.49 in 10.0 mi East 9.2 mph - N/A   Clear
11:15 AM 30.9 °F 23.5 °F 18.7 °F 61% 30.48 in 10.0 mi East 8.1 mph - N/A   Clear
11:16 AM 30.7 °F 23.3 °F 18.7 °F 61% 30.48 in 10.0 mi East 8.1 mph - N/A   Clear
11:35 AM 30.9 °F 23.5 °F 19.0 °F 61% 30.48 in 10.0 mi East 8.1 mph - N/A   Clear
11:36 AM 30.9 °F 23.5 °F 19.0 °F 61% 30.48 in 10.0 mi East 8.1 mph - N/A   Clear
11:55 AM 31.5 °F 24.9 °F 18.9 °F 60% 30.47 in 10.0 mi East 6.9 mph - N/A   Clear
11:56 AM 31.6 °F 23.7 °F 19.0 °F 60% 30.47 in 10.0 mi East 9.2 mph - N/A   Clear
12:15 PM 32.0 °F 24.8 °F 19.0 °F 59% 30.46 in 10.0 mi East 8.1 mph - N/A   Clear
12:35 PM 32.2 °F 25.0 °F 19.0 °F 58% 30.45 in 10.0 mi East 8.1 mph - N/A   Clear
12:36 PM 32.2 °F 25.0 °F 19.0 °F 58% 30.45 in 10.0 mi East 8.1 mph - N/A   Clear
12:55 PM 32.4 °F 26.9 °F 18.7 °F 57% 30.44 in 10.0 mi ENE 5.8 mph - N/A   Clear
1:15 PM 32.4 °F 25.3 °F 18.7 °F 57% 30.42 in 10.0 mi ENE 8.1 mph - N/A   Clear
1:16 PM 32.4 °F 25.3 °F 18.9 °F 58% 30.42 in 10.0 mi ENE 8.1 mph - N/A   Clear
1:35 PM 32.0 °F 25.6 °F 19.0 °F 59% 30.41 in 10.0 mi ENE 6.9 mph - N/A   Clear
1:36 PM 32.0 °F 24.8 °F 19.0 °F 59% 30.41 in 10.0 mi ENE 8.1 mph - N/A   Clear
1:55 PM 32.0 °F 24.2 °F 19.0 °F 59% 30.40 in 10.0 mi ENE 9.2 mph - N/A   Clear
1:56 PM 32.0 °F 24.2 °F 19.0 °F 59% 30.40 in 10.0 mi East 9.2 mph - N/A   Clear
2:15 PM 32.9 °F 25.3 °F 19.2 °F 57% 30.39 in 10.0 mi ENE 9.2 mph - N/A   Clear
2:16 PM 32.9 °F 25.3 °F 19.0 °F 57% 30.39 in 10.0 mi ENE 9.2 mph - N/A   Clear
2:35 PM 32.5 °F 26.2 °F 18.7 °F 57% 30.38 in 10.0 mi NE 6.9 mph - N/A   Clear
2:55 PM 32.4 °F 26.9 °F 18.3 °F 56% 30.38 in 10.0 mi NE 5.8 mph - N/A   Clear
2:56 PM 32.4 °F 26.0 °F 18.5 °F 57% 30.38 in 10.0 mi NNE 6.9 mph - N/A   Clear
3:15 PM 32.7 °F 27.3 °F 17.8 °F 54% 30.37 in 10.0 mi ENE 5.8 mph - N/A   Clear
3:16 PM 32.7 °F 27.3 °F 17.8 °F 54% 30.37 in 10.0 mi East 5.8 mph - N/A   Clear
3:36 PM 32.9 °F 25.9 °F 17.4 °F 53% 30.37 in 10.0 mi ENE 8.1 mph - N/A   Clear
3:55 PM 32.2 °F 25.8 °F 17.4 °F 55% 30.36 in 10.0 mi ENE 6.9 mph - N/A   Clear
3:56 PM 32.2 °F 25.8 °F 17.4 °F 55% 30.36 in 10.0 mi NE 6.9 mph - N/A   Clear
4:15 PM 32.0 °F 24.8 °F 16.7 °F 53% 30.35 in 10.0 mi NE 8.1 mph - N/A   Clear
4:35 PM 32.0 °F 26.4 °F 16.2 °F 52% 30.35 in 10.0 mi ENE 5.8 mph - N/A   Clear
4:55 PM 31.5 °F 25.8 °F 14.4 °F 49% 30.34 in 10.0 mi NE 5.8 mph - N/A   Clear
5:15 PM 30.6 °F 23.8 °F 13.8 °F 50% 30.34 in 10.0 mi NE 6.9 mph - N/A   Clear
5:35 PM 29.8 °F 22.2 °F 13.6 °F 51% 30.34 in 10.0 mi ENE 8.1 mph - N/A   Clear
5:55 PM 29.7 °F 22.0 °F 13.5 °F 51% 30.34 in 10.0 mi ENE 8.1 mph - N/A   Clear
6:15 PM 29.3 °F 21.5 °F 14.0 °F 53% 30.34 in 10.0 mi ENE 8.1 mph - N/A   Clear
6:35 PM 29.1 °F 23.0 °F 14.5 °F 55% 30.34 in 10.0 mi ENE 5.8 mph - N/A   Clear
6:36 PM 29.1 °F 23.0 °F 14.7 °F 55% 30.34 in 10.0 mi ENE 5.8 mph - N/A   Clear
6:55 PM 28.9 °F 21.9 °F 15.4 °F 57% 30.34 in 10.0 mi ENE 6.9 mph - N/A   Clear
7:15 PM 28.4 °F 20.4 °F 15.1 °F 57% 30.33 in 10.0 mi East 8.1 mph - N/A   Clear
7:16 PM 28.4 °F 21.2 °F 14.9 °F 57% 30.33 in 10.0 mi East 6.9 mph - N/A   Clear
7:35 PM 28.2 °F 20.2 °F 14.0 °F 55% 30.33 in 10.0 mi East 8.1 mph - N/A   Clear
7:36 PM 28.2 °F 20.2 °F 14.2 °F 56% 30.33 in 10.0 mi East 8.1 mph - N/A   Clear
7:55 PM 28.0 °F 21.7 °F 14.0 °F 56% 30.33 in 10.0 mi East 5.8 mph - N/A   Clear
8:15 PM 27.5 °F 22.2 °F 14.4 °F 58% 30.33 in 10.0 mi East 4.6 mph - N/A   Clear
8:35 PM 27.3 °F 22.0 °F 14.4 °F 58% 30.32 in 10.0 mi ENE 4.6 mph - N/A   Clear
8:36 PM 27.3 °F 20.9 °F 14.4 °F 58% 30.32 in 10.0 mi ENE 5.8 mph - N/A   Clear
8:55 PM 26.6 °F 20.0 °F 14.9 °F 61% 30.31 in 10.0 mi East 5.8 mph - N/A   Clear
8:56 PM 26.6 °F 19.1 °F 14.9 °F 61% 30.31 in 10.0 mi East 6.9 mph - N/A   Clear
9:15 PM 26.4 °F 19.8 °F 15.3 °F 63% 30.31 in 10.0 mi East 5.8 mph - N/A   Clear
9:35 PM 25.7 °F 18.0 °F 15.6 °F 66% 30.30 in 10.0 mi East 6.9 mph - N/A   Clear
9:55 PM 25.9 °F 20.3 °F 16.2 °F 67% 30.30 in 10.0 mi ENE 4.6 mph - N/A   Clear
10:15 PM 25.7 °F 21.5 °F 16.7 °F 69% 30.30 in 10.0 mi ENE 3.5 mph - N/A   Clear
10:35 PM 25.3 °F 19.7 °F 17.2 °F 71% 30.30 in 10.0 mi ENE 4.6 mph - N/A   Clear
10:36 PM 25.2 °F 19.5 °F 17.2 °F 72% 30.30 in 10.0 mi ENE 4.6 mph - N/A   Clear
10:55 PM 25.2 °F 19.5 °F 17.6 °F 73% 30.29 in 10.0 mi ENE 4.6 mph - N/A   Scattered Clouds
11:15 PM 25.2 °F 18.3 °F 17.6 °F 73% 30.27 in 10.0 mi East 5.8 mph - N/A   Mostly Cloudy
11:35 PM 25.5 °F 17.8 °F 18.5 °F 75% 30.26 in 10.0 mi ENE 6.9 mph - N/A   Mostly Cloudy
11:55 PM 25.2 °F 20.9 °F 18.5 °F 76% 30.27 in 10.0 mi NE 3.5 mph - N/A   Scattered Clouds